timestamp,wind_dir_avg,wind_spd_avg,wind_spd_max_dir,wind_spd_gust,battery_voltage,lat,long
2022-04-02 00:04:00+00:00,211.0,4.0,214.0,4.7,12.41,47.59359,-54.27349
2022-04-02 00:14:01+00:00,178.0,6.43,152.0,8.42,12.41,47.59359,-54.27349
2022-04-02 00:24:01+00:00,180.0,5.91,179.0,6.5,12.41,47.59359,-54.27349
2022-04-02 00:34:01+00:00,177.0,5.99,179.0,7.11,12.41,47.59359,-54.27349
2022-04-02 00:44:01+00:00,181.0,6.03,183.0,7.19,12.41,47.59359,-54.27349
2022-04-02 00:54:01+00:00,180.0,5.8,176.0,6.7,12.41,47.59359,-54.27349
2022-04-02 01:04:01+00:00,182.0,5.72,182.0,6.33,12.41,47.59359,-54.27349
2022-04-02 01:14:01+00:00,169.0,3.72,173.0,4.88,12.33,47.59359,-54.27349
2022-04-02 01:24:01+00:00,178.0,5.7,180.0,8.89,12.33,47.59359,-54.27349
2022-04-02 01:34:01+00:00,169.0,5.87,167.0,6.82,12.33,47.59359,-54.27349
2022-04-02 01:44:01+00:00,163.0,4.51,164.0,4.86,12.33,47.59359,-54.27349
2022-04-02 01:54:01+00:00,185.0,7.16,184.0,7.89,12.33,47.59359,-54.27349
2022-04-02 02:04:01+00:00,169.0,6.44,166.0,8.3,12.33,47.59359,-54.27349
2022-04-02 02:14:00+00:00,170.0,4.48,169.0,5.1,12.33,47.59359,-54.27349
2022-04-02 02:24:00+00:00,173.0,5.9,179.0,7.7,12.33,47.59359,-54.27349
2022-04-02 02:34:00+00:00,182.0,7.15,182.0,9.23,12.33,47.59359,-54.27349
2022-04-02 02:44:00+00:00,185.0,6.36,186.0,7.18,12.33,47.59359,-54.27349
2022-04-02 02:54:00+00:00,185.0,6.77,190.0,7.53,12.33,47.59359,-54.27349
2022-04-02 03:04:00+00:00,178.0,7.24,180.0,8.12,12.33,47.59359,-54.27349
2022-04-02 03:14:01+00:00,182.0,6.57,181.0,7.08,12.33,47.59359,-54.27349
2022-04-02 03:24:01+00:00,189.0,7.47,194.0,8.53,12.33,47.59359,-54.27349
2022-04-02 03:34:01+00:00,191.0,3.65,190.0,4.02,12.33,47.59359,-54.27349
2022-04-02 03:44:01+00:00,185.0,5.68,186.0,5.69,12.33,47.59359,-54.27349
2022-04-02 03:54:01+00:00,185.0,3.06,189.0,3.15,12.33,47.59359,-54.27349
2022-04-02 04:04:01+00:00,315.0,0.01,185.0,0.0,12.33,47.59359,-54.27349
2022-04-02 04:14:00+00:00,315.0,0.01,185.0,0.0,12.25,47.59359,-54.27349
2022-04-02 04:24:00+00:00,315.0,0.01,185.0,0.0,12.25,47.59359,-54.27349
2022-04-02 04:34:00+00:00,315.0,0.01,185.0,0.0,12.25,47.59359,-54.27349
2022-04-02 04:44:00+00:00,315.0,0.01,185.0,0.0,12.25,47.59359,-54.27349
2022-04-02 04:54:00+00:00,315.0,0.01,185.0,0.0,12.25,47.59359,-54.27349
2022-04-02 05:04:00+00:00,315.0,0.01,185.0,0.0,12.25,47.59359,-54.27349
2022-04-02 05:14:01+00:00,315.0,0.01,185.0,0.0,12.25,47.59359,-54.27349
2022-04-02 05:24:01+00:00,315.0,0.01,185.0,0.0,12.25,47.59359,-54.27349
2022-04-02 05:34:01+00:00,315.0,0.01,185.0,0.0,12.25,47.59359,-54.27349
2022-04-02 05:44:01+00:00,124.0,0.47,117.0,0.66,12.25,47.59359,-54.27349
2022-04-02 05:54:01+00:00,186.0,0.84,177.0,1.79,12.25,47.59359,-54.27349
2022-04-02 06:04:01+00:00,225.0,2.79,248.0,4.94,12.25,47.59359,-54.27349
2022-04-02 06:14:01+00:00,172.0,2.27,173.0,2.7,12.17,47.59359,-54.27349
2022-04-02 06:24:01+00:00,152.0,0.95,160.0,1.17,12.17,47.59359,-54.27349
2022-04-02 06:34:01+00:00,119.0,0.48,92.0,2.78,12.17,47.59359,-54.27349
2022-04-02 06:44:01+00:00,134.0,2.33,112.0,5.1,12.17,47.59359,-54.27349
2022-04-02 06:54:01+00:00,155.0,1.25,147.0,1.49,12.17,47.59359,-54.27349
2022-04-02 07:04:01+00:00,96.0,0.34,107.0,0.45,12.17,47.59359,-54.27349
2022-04-02 07:14:01+00:00,35.0,0.48,28.0,0.76,12.17,47.59359,-54.27349
2022-04-02 07:24:01+00:00,36.0,0.38,31.0,0.5,12.17,47.59359,-54.27349
2022-04-02 07:34:01+00:00,246.0,2.04,255.0,4.96,12.17,47.59359,-54.27349
2022-04-02 07:44:01+00:00,243.0,6.07,241.0,6.97,12.17,47.59359,-54.27349
2022-04-02 07:54:01+00:00,239.0,7.01,241.0,7.53,12.17,47.59359,-54.27349
2022-04-02 08:04:01+00:00,234.0,5.96,235.0,6.61,12.17,47.59359,-54.27349
2022-04-02 08:14:01+00:00,315.0,0.01,235.0,0.0,12.17,47.59359,-54.27349
2022-04-02 08:24:01+00:00,228.0,7.81,232.0,8.43,12.17,47.59359,-54.27349
2022-04-02 08:34:01+00:00,232.0,6.83,233.0,7.81,12.17,47.59359,-54.27349
2022-04-02 08:44:01+00:00,315.0,0.01,220.0,0.0,12.17,47.59359,-54.27349
2022-04-02 08:54:01+00:00,315.0,0.01,220.0,0.0,12.17,47.59359,-54.27349
2022-04-02 09:04:01+00:00,315.0,0.01,220.0,0.0,12.17,47.59359,-54.27349
2022-04-02 09:14:00+00:00,315.0,0.01,220.0,0.0,12.09,47.59359,-54.27349
2022-04-02 09:24:00+00:00,228.0,5.7,234.0,6.79,12.09,47.59359,-54.27349
2022-04-02 09:34:00+00:00,230.0,6.83,232.0,7.74,12.09,47.59359,-54.27349
2022-04-02 09:44:00+00:00,225.0,7.5,228.0,8.05,12.09,47.59359,-54.27349
2022-04-02 09:54:00+00:00,209.0,8.0,213.0,9.01,12.09,47.59359,-54.27349
2022-04-02 10:04:00+00:00,215.0,9.94,216.0,10.65,12.09,47.59359,-54.27349
2022-04-02 10:14:00+00:00,222.0,8.87,217.0,9.97,12.09,47.59359,-54.27349
2022-04-02 10:24:00+00:00,315.0,0.01,217.0,0.0,12.09,47.59359,-54.27349
2022-04-02 10:34:00+00:00,315.0,0.01,217.0,0.0,12.09,47.59359,-54.27349
2022-04-02 10:44:00+00:00,214.0,5.48,221.0,6.68,12.09,47.59359,-54.27349
2022-04-02 10:54:00+00:00,219.0,5.49,233.0,7.24,12.09,47.59359,-54.27349
2022-04-02 11:04:00+00:00,119.0,5.17,114.0,6.45,12.09,47.59359,-54.27349
2022-04-02 11:14:00+00:00,202.0,1.76,253.0,4.27,12.17,47.59359,-54.27349
2022-04-02 11:24:00+00:00,215.0,6.95,229.0,8.52,12.17,47.59359,-54.27349
2022-04-02 11:34:00+00:00,202.0,9.62,207.0,10.32,12.17,47.59359,-54.27349
2022-04-02 11:44:00+00:00,201.0,7.92,200.0,8.68,12.17,47.59359,-54.27349
2022-04-02 11:54:00+00:00,194.0,6.8,193.0,8.88,12.17,47.59359,-54.27349
2022-04-02 12:04:00+00:00,207.0,6.39,200.0,7.99,12.17,47.59359,-54.27349
2022-04-02 12:14:01+00:00,210.0,6.69,230.0,7.67,12.33,47.59359,-54.27349
2022-04-02 12:24:01+00:00,229.0,5.51,230.0,5.52,12.33,47.59359,-54.27349
2022-04-02 12:34:01+00:00,223.0,8.31,242.0,13.77,12.33,47.59359,-54.27349
2022-04-02 12:44:01+00:00,245.0,8.48,251.0,10.12,12.33,47.59359,-54.27349
2022-04-02 12:54:01+00:00,207.0,9.0,202.0,10.78,12.33,47.59359,-54.27349
2022-04-02 13:04:01+00:00,207.0,10.39,210.0,11.46,12.33,47.59359,-54.27349
2022-04-02 13:14:00+00:00,204.0,8.65,200.0,10.54,12.17,47.59359,-54.27349
2022-04-02 13:24:00+00:00,205.0,8.82,207.0,9.83,12.17,47.59359,-54.27349
2022-04-02 13:34:00+00:00,206.0,8.36,210.0,9.68,12.17,47.59359,-54.27349
2022-04-02 13:44:00+00:00,199.0,8.79,204.0,10.15,12.17,47.59359,-54.27349
2022-04-02 13:54:00+00:00,198.0,8.75,203.0,9.71,12.17,47.59359,-54.27349
2022-04-02 14:04:00+00:00,210.0,9.8,211.0,11.47,12.17,47.59359,-54.27349
2022-04-02 14:14:01+00:00,172.0,3.32,191.0,5.74,12.57,47.59359,-54.27349
2022-04-02 14:24:01+00:00,211.0,12.19,211.0,14.59,12.57,47.59359,-54.27349
2022-04-02 14:34:01+00:00,214.0,11.47,214.0,13.35,12.57,47.59359,-54.27349
2022-04-02 14:44:01+00:00,217.0,10.71,215.0,12.9,12.57,47.59359,-54.27349
2022-04-02 14:54:01+00:00,217.0,9.58,217.0,10.53,12.57,47.59359,-54.27349
2022-04-02 15:04:01+00:00,220.0,12.91,220.0,14.17,12.57,47.59359,-54.27349
2022-04-02 15:14:01+00:00,220.0,11.58,224.0,13.19,13.68,47.59359,-54.27349
2022-04-02 15:24:01+00:00,221.0,11.54,231.0,12.62,13.68,47.59359,-54.27349
2022-04-02 15:34:01+00:00,221.0,12.61,219.0,14.54,13.68,47.59359,-54.27349
2022-04-02 15:44:01+00:00,214.0,13.56,210.0,15.36,13.68,47.59359,-54.27349
2022-04-02 15:54:01+00:00,217.0,12.82,219.0,14.77,13.68,47.59359,-54.27349
2022-04-02 16:04:01+00:00,222.0,12.16,221.0,13.27,13.68,47.59359,-54.27349
2022-04-02 16:14:00+00:00,224.0,11.83,221.0,13.31,13.37,47.59359,-54.27349
2022-04-02 16:24:00+00:00,221.0,12.13,223.0,13.7,13.37,47.59359,-54.27349
2022-04-02 16:34:00+00:00,220.0,12.65,221.0,14.4,13.37,47.59359,-54.27349
2022-04-02 16:44:00+00:00,220.0,12.36,221.0,13.81,13.37,47.59359,-54.27349
2022-04-02 16:54:00+00:00,220.0,11.69,214.0,13.53,13.37,47.59359,-54.27349
2022-04-02 17:04:00+00:00,220.0,12.17,213.0,13.8,13.37,47.59359,-54.27349
2022-04-02 17:14:00+00:00,220.0,12.81,220.0,14.09,13.21,47.59359,-54.27349
2022-04-02 17:24:00+00:00,221.0,12.88,220.0,14.34,13.21,47.59359,-54.27349
2022-04-02 17:34:00+00:00,216.0,13.36,217.0,14.51,13.21,47.59359,-54.27349
2022-04-02 17:44:00+00:00,216.0,13.68,220.0,14.87,13.21,47.59359,-54.27349
2022-04-02 17:54:00+00:00,214.0,13.72,207.0,15.37,13.21,47.59359,-54.27349
2022-04-02 18:04:00+00:00,215.0,13.44,215.0,15.74,13.21,47.59359,-54.27349
2022-04-02 18:14:00+00:00,216.0,13.08,213.0,14.49,13.6,47.59359,-54.27349
2022-04-02 18:24:00+00:00,221.0,12.59,222.0,13.85,13.6,47.59359,-54.27349
2022-04-02 18:34:00+00:00,221.0,12.41,219.0,13.93,13.6,47.59359,-54.27349
2022-04-02 18:44:00+00:00,230.0,11.71,226.0,12.97,13.6,47.59359,-54.27349
2022-04-02 18:54:00+00:00,231.0,10.17,244.0,12.53,13.6,47.59359,-54.27349
2022-04-02 19:04:00+00:00,252.0,12.69,254.0,17.56,13.6,47.59359,-54.27349
2022-04-02 20:14:00+00:00,240.0,9.07,242.0,10.3,13.53,47.59359,-54.27349
2022-04-02 20:24:00+00:00,233.0,11.72,236.0,14.17,13.53,47.59359,-54.27349
2022-04-02 20:34:00+00:00,243.0,9.87,242.0,11.26,13.53,47.59359,-54.27349
2022-04-02 20:44:00+00:00,241.0,11.65,238.0,13.24,13.53,47.59359,-54.27349
2022-04-02 20:54:00+00:00,240.0,10.52,245.0,12.28,13.53,47.59359,-54.27349
2022-04-02 21:04:00+00:00,249.0,10.09,249.0,11.86,13.53,47.59359,-54.27349
2022-04-02 21:14:01+00:00,249.0,10.87,254.0,12.23,13.29,47.59359,-54.27349
2022-04-02 21:24:01+00:00,244.0,10.17,245.0,12.02,13.29,47.59359,-54.27349
2022-04-02 21:34:01+00:00,249.0,11.09,253.0,14.06,13.29,47.59359,-54.27349
2022-04-02 21:44:01+00:00,235.0,11.68,245.0,13.75,13.29,47.59359,-54.27349
2022-04-02 21:54:01+00:00,242.0,11.0,249.0,17.27,13.29,47.59359,-54.27349
2022-04-02 22:04:01+00:00,244.0,10.75,243.0,12.88,13.29,47.59359,-54.27349
2022-04-02 22:14:01+00:00,243.0,9.74,243.0,11.09,12.81,47.59359,-54.27349
2022-04-02 22:24:01+00:00,247.0,10.05,244.0,12.44,12.81,47.59359,-54.27349
2022-04-02 22:34:01+00:00,246.0,11.35,253.0,17.19,12.81,47.59359,-54.27349
2022-04-02 22:44:01+00:00,242.0,11.36,249.0,16.65,12.81,47.59359,-54.27349
2022-04-02 22:54:01+00:00,244.0,11.53,244.0,13.11,12.81,47.59359,-54.27349
2022-04-02 23:04:01+00:00,236.0,9.92,235.0,10.77,12.81,47.59359,-54.27349
2022-04-02 23:14:01+00:00,231.0,9.8,234.0,11.47,12.41,47.59359,-54.27349
2022-04-02 23:24:01+00:00,227.0,11.32,222.0,13.06,12.41,47.59359,-54.27349
2022-04-02 23:34:01+00:00,236.0,11.01,233.0,12.25,12.41,47.59359,-54.27349
2022-04-02 23:44:01+00:00,230.0,11.35,231.0,13.19,12.41,47.59359,-54.27349
2022-04-02 23:54:01+00:00,231.0,11.26,232.0,12.62,12.41,47.59359,-54.27349
